User: anonymous   Login
Location: Unspecified
(0.0000°N, 0.0000°E)
Time: 20:48:13
(UTC+00:00)
Language:

STARLINK-31129 - Orbit

View from above orbital plane
View from above orbital plane
View from above satellite
View from above satellite

Ground track
Ground track

The orbit is defined by the following mean orbital elements,

1 58624U          26145.01107424 +.00000000 +00000-0 +79635-3 0 00008
2 58624  43.0033 356.0834 0001133 268.5279  91.5443 15.27636227    03
Epoch (UTC): 25 May 2026 00:15:56
Eccentricity: 0.0001133
inclination: 43.0033°
perigee height: 482 km
apogee height: 484 km
right ascension of ascending node: 356.0834°
argument of perigee: 268.5279°
revolutions per day: 15.27636227
mean anomaly at epoch: 91.5443°

The dashed part of the orbit path shows where the satellite is in the earth's shadow,  

DLR